Regional Weather Roundup
Issued by NWS

Home | Current Version | Previous Version | Text Only | Print | Product List | Glossary Off
Versions: 1 2 3 4 5 6 7 8 9 10 11 12 13 14 15 16 17 18 19 20 21 22 23 24 25 26 27 28 29 30 31 32 33 34 35 36 37 38 39 40 41 42 43 44 45 46 47 48 49 50

000
ASUS43 KLOT 261010
RWRIL

ILLINOIS REGIONAL WEATHER ROUNDUP
NATIONAL WEATHER SERVICE CHICAGO/ROMEOVILLE IL
500 AM CDT SAT JUL 26 2014

NOTE: "FAIR" INDICATES FEW OR NO CLOUDS BELOW 12,000 FEET WITH NO
SIGNIFICANT WEATHER AND/OR OBSTRUCTIONS TO VISIBILITY.

* THESE STATIONS ARE NOT UNDER NWS QUALITY CONTROL. THEY ALSO MAY NOT
  REPORT WEATHER SUCH AS PRECIPITATION OR FOG.

ILZ001-002-007-009-015-016-024-261100-
NORTHWEST ILLINOIS

CITY           SKY/WX    TMP DP  RH WIND       PRES   REMARKS
MOLINE         CLEAR     65  62  90 E5        29.80F
STERLING*      CLOUDY    64  61  88 E3        29.83F
SAVANNA*       CLOUDY    67  61  83 NE5       29.83S
$$

ILZ003-004-008-010-011-017-018-261100-
NORTH CENTRAL ILLINOIS

CITY           SKY/WX    TMP DP  RH WIND       PRES   REMARKS
ROCKFORD       LGT RAIN  67  60  78 S6        29.87F
FREEPORT*      DRIZZLE   62  60  93 SE3       29.87S
ROCHELLE*      CLOUDY    66  60  81 CALM      29.85S
DE KALB*       CLOUDY    64  60  86 S5        29.86F
PERU*          CLOUDY    66  62  87 SE8       29.84F
$$

ILZ005-006-012>014-019>023-261100-
NORTHEAST ILLINOIS

CITY           SKY/WX    TMP DP  RH WIND       PRES   REMARKS
CHICAGO-OHARE  CLOUDY    69  58  67 SW6       29.85F
CHICAGO-MIDWAY CLOUDY    71  61  70 SW7       29.86S
AURORA         CLOUDY    67  61  81 S6        29.85F
LANSING*       MOCLDY    67  59  75 S7        29.87F
JOLIET*        LGT RAIN  67  61  81 S6        29.86F
WAUKEGAN       PTCLDY    64  59  83 SW6       29.85F
DUPAGE AIRPORT CLOUDY    68  60  75 S7        29.85S
KANKAKEE*      CLOUDY    68  62  81 S6        29.88S
WHEELING       MOCLDY    69  60  73 S5        29.87S
MORRIS*        CLOUDY    69  62  79 SE6       29.86S
ROMEOVILLE*    CLOUDY    68  60  75 S9        29.85F
NORTHERLY ISL    N/A     69  58  67 S7          N/A
$$

LMZ740>746-261100-
SOUTHERN LAKE MICHIGAN

STATION/POSITION SKY/WX   TEMP    WIND        PRES    VSBY  WAVE
                          AIR SEA DIR/SP/G                  HT/PER
                          (F)     (DEG/KT/KT) (MB)    (MI)  (FT/S)
SOUTHERN BUOY              62 61  160/  6/  6 1011.3F         1/ 3
WAUKEGAN HARBOR            66     180/  2/  3   N/A
HARRISON CRIB              68     200/  7/  9   N/A
BURNHAM HARBOR             69     220/  5/  8   N/A
CALUMET HARBOR             69     190/  6/  7 1010.0F
BURNS HARBOR               67     200/  8/ 11 1011.9S
MICHIGAN CITY              66     170/  6/  8   N/A
MICHIGAN CITY 6N           66 68  180/  4/  4   N/A           0
ST. JOSEPH                 66 66  140/  6/ 10   N/A           1/ 2
$$

ILZ025>027-034>036-040-047-049-050-058-095>099-261100-
WEST-CENTRAL ILLINOIS

CITY           SKY/WX    TMP DP  RH WIND       PRES   REMARKS
QUINCY         CLEAR     72  68  87 S9        29.83R
GALESBURG*     PTCLDY    66  64  91 S7        29.81F
MACOMB*        CLEAR     67  65  95 S7        29.83S
JACKSONVILLE*  PTCLDY    71  66  85 S10       29.86R
PITTSFIELD*    CLEAR     72  67  86 S5        29.86R
$$

ILZ028>032-037-038-041>044-048-051>054-059>061-261100-
CENTRAL ILLINOIS

CITY           SKY/WX    TMP DP  RH WIND       PRES   REMARKS
PONTIAC        PTCLDY    66  64  94 SE5       29.85S
DECATUR        CLOUDY    70  63  78 S12       29.87F
PEORIA         PTCLDY    69  63  81 S9        29.83S
LACON*         CLEAR     66  62  85 SE5       29.81F
LINCOLN*       CLOUDY    70  64  80 S7        29.83S
SPRINGFIELD    PTCLDY    70  64  81 S9        29.85F
TAYLORVILLE    PTCLDY    66  63  88 S13       29.87F
$$

ILZ033-039-045-046-055>057-062-063-261100-
EAST-CENTRAL ILLINOIS

CITY           SKY/WX    TMP DP  RH WIND       PRES   REMARKS
CHAMPAIGN      CLOUDY    68  62  81 S9        29.88F
DANVILLE*      MOCLDY    66  61  83 S8        29.87S
RANTOUL*       LGT RAIN  68  62  80 S7        29.88S
MATTOON        CLOUDY    69  62  78 S13       29.88F
PARIS*         MOCLDY    67  62  84 S6        29.90F
$$

ILZ079-100>102-261100-
SOUTHWEST ILLINOIS

CITY           SKY/WX    TMP DP  RH WIND       PRES   REMARKS
ALTON          MOCLDY    67  67 100 SE3       29.89S
BELLEVILLE     MOCLDY    68  66  96 E3        29.89F
CAHOKIA*       MOCLDY    69  65  86 S7        29.89S
SPARTA*        PTCLDY    64  63  94 SE7       29.93S
$$

ILZ064>066-069>071-074>076-080>082-084>086-088>090-092>094-261100-
SOUTH-CENTRAL ILLINOIS

CITY           SKY/WX    TMP DP  RH WIND       PRES   REMARKS
CARBONDALE     CLEAR     65  63  93 CALM      29.94S
CAIRO*         CLEAR     71  65  80 S7        29.95R
EFFINGHAM*     CLOUDY    68  61  77 S5        29.91R
MARION         CLEAR     66  63  88 S6        29.95F
MT. VERNON     MOCLDY    66  61  82 S6        29.94F
CENTRALIA*     PTCLDY    68  62  81 S9        29.92S
SALEM*         MOCLDY    71  66  83 S8        29.92S
METROPOLIS*    CLEAR     64  62  96 CALM      29.96S FOG
$$

ILZ067-068-072-073-078-083-087-091-261100-
SOUTHEAST ILLINOIS

CITY           SKY/WX    TMP DP  RH WIND       PRES   REMARKS
LAWRENCEVILLE  MOCLDY    65  61  87 S5        29.94S
FLORA*         CLEAR     66  63  88 S9        29.93S
FAIRFIELD*     CLEAR     66  64  94 S6        29.93F
HARRISBURG*    CLEAR     62  62 100 CALM      29.96S
ROBINSON*      PTCLDY    67  62  84 S5        29.94S
CARMI*         CLEAR     64  63  94 S5        29.94F
$$

ABBREVIATIONS USED IN REMARKS
   TC - TEMPERATURE IN CELSIUS
  WCI - WIND CHILL INDEX
   HX - HEAT INDEX
  VSB - VISIBILITY
$$




USA.gov is the U.S. government's official web portal to all federal, state and local government web resources and services.